Overview Statistics Trail Chart Weather Telemetry Raw packets
 

This is the latest recevied weather packets stored in our database for station/object K8RRT. If no packets are shown the sender has not sent any weather packets the latest 10 day(s).

<< 50 51 52 53 54 55 56 >>
Time Temp. Humidity Pressure Rain* Wind** Luminosity Snow
1788274904 30° C 77% 1015.8 hPa 0 mm - 665 W/m² -
1788274602 30° C 77% 1015.9 hPa 0 mm - 649 W/m² -
1788274302 29.44° C 80% 1015.9 hPa 0 mm - 643 W/m² -
1788273997 29.44° C 79% 1015.7 hPa 0 mm - 631 W/m² -
1788273692 28.89° C 80% 1015.9 hPa 0 mm - 604 W/m² -
1788273387 28.89° C 80% 1015.8 hPa 0 mm - 585 W/m² -
1788273084 28.89° C 81% 1016 hPa 0 mm - 470 W/m² -
1788272779 28.89° C 80% 1015.9 hPa 0 mm - 572 W/m² -
1788272479 28.89° C 81% 1016 hPa 0 mm - 539 W/m² -
1788272173 28.33° C 81% 1015.9 hPa 0 mm - 555 W/m² -
1788271868 28.33° C 82% 1015.7 hPa 0 mm - 481 W/m² -
1788271568 28.33° C 83% 1015.9 hPa 0 mm - 505 W/m² -
1788271267 27.78° C 83% 1015.8 hPa 0 mm - 482 W/m² -
1788270966 27.78° C 84% 1015.9 hPa 0 mm - 415 W/m² -
1788270657 27.78° C 84% 1015.9 hPa 0 mm - 354 W/m² -
1788270352 27.78° C 85% 1015.9 hPa 0 mm - 345 W/m² -
1788270047 27.22° C 86% 1015.9 hPa 0 mm - 359 W/m² -
1788269746 27.22° C 88% 1015.9 hPa 0 mm - 333 W/m² -
1788269444 26.67° C 88% 1016.2 hPa 0 mm - 325 W/m² -
1788269139 26.67° C 89% 1015.9 hPa 0 mm - 311 W/m² -
1788268839 26.11° C 90% 1016 hPa 0 mm - 287 W/m² -
1788268538 25.56° C 92% 1015.9 hPa 0 mm - 261 W/m² -
1788268229 25° C 96% 1015.8 hPa 0 mm - 257 W/m² -
1788267929 24.44° C 99% 1015.9 hPa 0 mm - 247 W/m² -
1788267627 24.44° C 99% 1015.7 hPa 0 mm - 244 W/m² -

* Rain latest hour (hover to see other rain measurements)
** Current wind speed in m/s (hover to see current wind gust speed)